Location: Oshawa
(43.9000°N, 78.8670°W)
Time: 23:32:51
(UTC-04:00)

Courier 1B - All Passes

Search period start: 31 July 2015 00:00
Search period end: 10 August 2015 00:00
Orbit: 963 x 1209 km, 28.3° (Epoch: 31 July)

Date Brightness Start Highest point End Pass type
(mag) Time Alt. Az. Time Alt. Az. Time Alt. Az.
31 Jul - 18:29:31 10° SSW 18:33:35 18° S 18:37:42 10° SE daylight
31 Jul - 20:22:06 10° SW 20:26:32 19° S 20:31:01 10° SE daylight
31 Jul - 22:16:47 10° SW 22:19:29 12° SSW 22:22:03 10° S visible
01 Aug - 17:36:30 10° SSW 17:40:09 16° SSE 17:43:51 10° SE daylight
01 Aug - 19:28:37 10° SW 19:33:05 20° S 19:37:35 10° SE daylight
01 Aug - 21:22:35 10° SW 21:26:01 15° SSW 21:29:25 10° SSE visible
02 Aug - 16:43:44 10° SSW 16:46:43 14° SSE 16:49:47 10° SE daylight
02 Aug - 18:35:11 10° SW 18:39:38 20° S 18:44:05 10° SE daylight
02 Aug - 20:28:40 10° SW 20:32:35 17° SSW 20:36:28 10° SSE daylight
03 Aug - 15:51:28 10° S 15:53:17 11° SSE 15:55:13 10° SE daylight
03 Aug - 17:41:51 10° SW 17:46:11 19° S 17:50:31 10° SE daylight
03 Aug - 19:34:55 10° SW 19:39:09 18° S 19:43:20 10° SSE daylight
04 Aug - 16:48:35 10° SSW 16:52:44 18° S 16:56:53 10° SE daylight
04 Aug - 18:41:16 10° SW 18:45:42 19° S 18:50:05 10° SE daylight
04 Aug - 20:36:02 10° SW 20:38:36 12° SSW 20:41:02 10° S daylight
05 Aug - 15:55:28 10° SSW 15:59:17 16° SSE 16:03:06 10° SE daylight
05 Aug - 17:47:40 10° SW 17:52:15 20° S 17:56:45 10° SE daylight
05 Aug - 19:41:44 10° SW 19:45:11 15° SSW 19:48:31 10° SSE daylight
06 Aug - 15:02:34 10° SSW 15:05:49 14° SSE 15:09:07 10° SE daylight
06 Aug - 16:54:09 10° SW 16:58:48 20° S 17:03:20 10° SE daylight
06 Aug - 18:47:44 10° SW 18:51:45 17° SSW 18:55:40 10° SSE daylight
07 Aug - 14:10:06 10° S 14:12:20 12° SSE 14:14:41 10° SE daylight
07 Aug - 16:00:42 10° SW 16:05:19 19° S 16:09:50 10° SE daylight
07 Aug - 17:53:53 10° SW 17:58:18 19° S 18:02:36 10° SE daylight
07 Aug - 19:50:21 10° SSW 19:51:10 10° SSW 19:51:48 10° SSW daylight
08 Aug - 15:07:21 10° SSW 15:11:50 18° S 15:16:13 10° SE daylight
08 Aug - 17:00:08 10° SW 17:04:51 20° S 17:09:25 10° SE daylight
08 Aug - 18:54:53 10° SW 18:57:45 13° SSW 19:00:28 10° S daylight
09 Aug - 14:14:08 10° SSW 14:18:20 17° SSE 14:22:28 10° SE daylight
09 Aug - 16:06:27 10° SW 16:11:22 21° S 16:16:07 10° SE daylight
09 Aug - 18:00:33 10° SW 18:04:20 16° SSW 18:07:57 10° SSE daylight
